El Dorado, AR

10:56 PM CDT on May 22, 2017 (GMT -0500)
South Arkansas Regional At Goodwin

Weather History for KELD - November, 2013

Change the Weather History Date:

Monday, November 4, 2013

  Actual Average Record
Temperature  
Mean Temperature 56 °F 58 °F  
Max Temperature 68 °F 70 °F 88 °F (1978)
Min Temperature 44 °F 46 °F 19 °F (1991)
Degree Days  
Heating Degree Days 9 8  
Month to date heating degree days 41 31  
Since 1 July heating degree days 155 164  
Cooling Degree Days 0 1  
Month to date cooling degree days 0 4  
Year to date cooling degree days 2144 2115  
Growing Degree Days 5 (Base 50)    
Moisture  
Dew Point 50 °F    
Average Humidity 82    
Maximum Humidity 100    
Minimum Humidity 63    
Precipitation  
Precipitation 0.00 in 0.14 in 2.96 in (1938)
Month to date precipitation 0.00 0.61  
Year to date precipitation 35.92 43.46  
Snow  
Snow 0.00 in - - ()
Month to date snowfall 0.0  
Since 1 July snowfall 0.0  
Since 1 September snowfall 0.0  
Snow Depth 0.00 in    
Sea Level Pressure  
Sea Level Pressure 30.16 in    
Wind  
Wind Speed 4 mph (ESE)    
Max Wind Speed 14 mph    
Max Gust Speed 18 mph    
Visibility 10 miles    
Events      
T = Trace of Precipitation, MM = Missing Value Source: NWS Daily Summary

Daily Weather History Graph

Daily Weather History Graph

Search for Another Location

Airport or City:

Trip Planner

Search our weather history database for the weather conditions in past years. The results will help you decide how hot, cold, wet, or windy it might be!

Date:

Astronomy

Nov. 04, 2013 Rise Set
Actual Time 6:32 AM CST 5:16 PM CST
Civil Twilight 6:06 AM CST 5:42 PM CST
Nautical Twilight 5:37 AM CST 6:11 PM CST
Astronomical Twilight 5:08 AM CST 6:40 PM CST
Moon 7:40 AM CST (11/4) 6:25 PM CST (11/4)
Length of Visible Light 11h 35m
Length of Day
10h 44m
New Moon, 2% of the Moon is Illuminated
Nov 4
New Moon
Nov 9
First Quarter
Nov 17
Full
Nov 25
Last Quarter
Dec 2
New

Hourly Weather History & Observations

Time (CST) Temp. Dew Point Humidity Pressure Visibility Wind Dir Wind Speed Gust Speed Precip Events Conditions
12:53 AM 45.0 °F 44.1 °F 97% 30.15 in 10.0 mi Calm Calm - N/A   Clear
1:53 AM 44.1 °F 43.0 °F 96% 30.13 in 10.0 mi Calm Calm - N/A   Clear
2:53 AM 46.9 °F 44.1 °F 90% 30.14 in 10.0 mi Calm Calm - N/A   Clear
3:53 AM 48.9 °F 44.1 °F 83% 30.15 in 10.0 mi SE 5.8 mph - N/A   Clear
4:53 AM 48.9 °F 45.0 °F 86% 30.16 in 10.0 mi South 4.6 mph - N/A   Clear
5:53 AM 48.9 °F 45.0 °F 86% 30.16 in 10.0 mi ESE 4.6 mph - N/A   Clear
6:53 AM 48.9 °F 46.0 °F 90% 30.16 in 10.0 mi East 4.6 mph - N/A   Clear
7:53 AM 51.1 °F 46.0 °F 83% 30.20 in 10.0 mi Calm Calm - N/A   Clear
8:53 AM 54.0 °F 46.9 °F 77% 30.21 in 10.0 mi SE 4.6 mph - N/A   Clear
9:53 AM 60.1 °F 48.9 °F 67% 30.22 in 10.0 mi SE 5.8 mph - N/A   Clear
10:53 AM 62.1 °F 50.0 °F 65% 30.21 in 10.0 mi SSE 9.2 mph - N/A   Partly Cloudy
11:53 AM 64.0 °F 51.1 °F 63% 30.17 in 10.0 mi SE 9.2 mph - N/A   Clear
12:53 PM 64.0 °F 52.0 °F 65% 30.16 in 10.0 mi SSE 5.8 mph - N/A   Mostly Cloudy
1:53 PM 66.9 °F 53.1 °F 61% 30.15 in 10.0 mi SSE 6.9 mph - N/A   Scattered Clouds
2:53 PM 66.0 °F 53.1 °F 63% 30.14 in 10.0 mi SE 4.6 mph - N/A   Overcast
3:53 PM 64.9 °F 54.0 °F 68% 30.14 in 10.0 mi East 3.5 mph - N/A   Partly Cloudy
4:53 PM 62.1 °F 55.0 °F 78% 30.14 in 10.0 mi ENE 3.5 mph - N/A   Partly Cloudy
5:53 PM 59.0 °F 55.0 °F 87% 30.14 in 10.0 mi NNE 3.5 mph - N/A   Scattered Clouds
6:53 PM 60.1 °F 55.9 °F 86% 30.16 in 10.0 mi ENE 4.6 mph - N/A   Overcast
7:53 PM 61.0 °F 55.0 °F 81% 30.18 in 10.0 mi Calm Calm - N/A   Overcast
8:53 PM 60.1 °F 55.0 °F 83% 30.15 in 10.0 mi East 8.1 mph - N/A   Clear
9:53 PM 61.0 °F 53.1 °F 75% 30.18 in 10.0 mi East 3.5 mph - N/A   Clear
10:53 PM 60.1 °F 53.1 °F 78% 30.18 in 10.0 mi East 5.8 mph - N/A   Scattered Clouds
11:53 PM 59.0 °F 54.0 °F 83% 30.17 in 10.0 mi East 4.6 mph - N/A   Mostly Cloudy